TimeMDT,TemperatureF,Dew PointF,Humidity,Sea Level PressureIn,VisibilityMPH,Wind Direction,Wind SpeedMPH,Gust SpeedMPH,PrecipitationIn,Events,Conditions,WindDirDegrees,DateUTC
12:53 AM,48.9,30.9,50,30.09,10.0,SE,8.1,-,N/A,,Clear,140,2013-03-30 06:53:00
1:53 AM,48.9,30.0,48,30.09,10.0,SE,8.1,-,N/A,,Clear,140,2013-03-30 07:53:00
2:53 AM,46.9,30.9,54,30.09,10.0,SE,6.9,-,N/A,,Clear,130,2013-03-30 08:53:00
3:53 AM,46.0,30.9,56,30.09,10.0,SE,8.1,-,N/A,,Partly Cloudy,140,2013-03-30 09:53:00
4:53 AM,44.1,34.0,68,30.09,10.0,SE,8.1,-,N/A,,Partly Cloudy,140,2013-03-30 10:53:00
5:53 AM,44.1,34.0,68,30.09,10.0,SE,8.1,-,N/A,,Partly Cloudy,130,2013-03-30 11:53:00
6:53 AM,43.0,33.1,68,30.11,10.0,ESE,6.9,-,N/A,,Partly Cloudy,110,2013-03-30 12:53:00
7:53 AM,46.9,33.1,59,30.12,10.0,Calm,Calm,-,N/A,,Partly Cloudy,0,2013-03-30 13:53:00
8:53 AM,50.0,36.0,59,30.13,10.0,SE,4.6,-,N/A,,Partly Cloudy,140,2013-03-30 14:53:00
9:53 AM,54.0,37.0,53,30.13,10.0,Calm,Calm,-,N/A,,Scattered Clouds,0,2013-03-30 15:53:00
10:53 AM,59.0,37.0,44,30.13,10.0,NNW,5.8,-,N/A,,Partly Cloudy,340,2013-03-30 16:53:00
11:53 AM,62.1,36.0,38,30.14,10.0,North,5.8,-,N/A,,Scattered Clouds,360,2013-03-30 17:53:00
12:53 PM,64.0,35.1,34,30.12,10.0,NW,9.2,-,N/A,,Scattered Clouds,310,2013-03-30 18:53:00
1:53 PM,64.9,35.1,33,30.11,10.0,NNW,10.4,-,N/A,,Partly Cloudy,340,2013-03-30 19:53:00
2:53 PM,66.0,35.1,32,30.10,10.0,North,11.5,-,N/A,,Partly Cloudy,350,2013-03-30 20:53:00
3:53 PM,66.0,33.1,29,30.09,10.0,NNW,10.4,-,N/A,,Partly Cloudy,330,2013-03-30 21:53:00
4:53 PM,66.0,32.0,28,30.07,10.0,NW,5.8,-,N/A,,Partly Cloudy,320,2013-03-30 22:53:00
5:53 PM,66.0,30.9,27,30.06,10.0,NW,8.1,-,N/A,,Partly Cloudy,310,2013-03-30 23:53:00
6:53 PM,63.0,33.1,33,30.06,10.0,West,10.4,-,N/A,,Partly Cloudy,280,2013-03-31 00:53:00
7:53 PM,57.9,33.1,39,30.06,10.0,West,8.1,-,N/A,,Clear,280,2013-03-31 01:53:00
8:53 PM,57.0,34.0,42,30.05,10.0,West,4.6,-,N/A,,Clear,280,2013-03-31 02:53:00
9:53 PM,55.0,36.0,49,30.06,10.0,Calm,Calm,-,N/A,,Clear,0,2013-03-31 03:53:00
10:53 PM,52.0,35.1,53,30.06,10.0,Calm,Calm,-,N/A,,Clear,0,2013-03-31 04:53:00
11:53 PM,50.0,33.1,52,30.06,10.0,South,5.8,-,N/A,,Clear,180,2013-03-31 05:53:00